1512547200.63,57032,2.0,73310.0,-8.63,-9.27,-9.31,0,*59
1512547201.82,57033,2.0,73252.8,-8.63,-9.31,-9.31,0,*5F
1512547203.04,57034,2.0,73370.8,-8.63,-9.37,-9.31,0,*5E
1512547204.27,57035,2.0,73352.5,-8.63,-9.31,-9.45,0,*5A
1512547205.51,57036,2.0,73336.3,-8.63,-9.45,-9.45,0,*5A
1512547206.77,57037,2.0,73328.8,-8.63,-9.41,-9.45,0,*5F
1512547208.02,57038,2.0,73324.8,-8.63,-9.41,-9.41,0,*54
1512547209.29,57039,2.0,73370.0,-8.65,-9.49,-9.49,0,*53
1512547210.54,57040,2.0,73352.3,-8.63,-9.45,-9.45,0,*5B
1512547211.78,57041,2.0,73338.8,-8.63,-9.45,-9.45,0,*5A
1512547213.03,57042,2.0,73390.8,-8.63,-9.41,-9.41,0,*59
1512547214.31,57043,2.0,73356.8,-8.61,-9.45,-9.41,0,*5E
1512547215.59,57044,2.0,73378.0,-8.61,-9.41,-9.41,0,*5D
1512547216.84,57045,2.0,73364.3,-8.63,-9.41,-9.41,0,*5E
1512547218.09,57046,2.0,73380.0,-8.63,-9.41,-9.41,0,*5D
1512547219.34,57047,2.0,73388.3,-8.63,-9.45,-9.45,0,*5C
1512547220.59,57048,2.0,73360.0,-8.63,-9.45,-9.45,0,*53
1512547221.83,57049,2.0,73368.3,-8.63,-9.45,-9.41,0,*56
1512547223.11,57050,2.0,73368.8,-8.61,-9.41,-9.41,0,*58
1512547224.39,57051,2.0,73360.5,-8.61,-9.41,-9.41,0,*59
1512547225.65,57052,2.0,73306.8,-8.61,-9.31,-9.41,0,*5D
1512547226.93,57053,2.0,73290.8,-8.61,-9.41,-9.41,0,*5B
1512547228.21,57054,2.0,73324.8,-8.61,-9.41,-9.45,0,*58
1512547229.49,57055,2.0,73310.8,-8.61,-9.41,-9.41,0,*5D
1512547230.74,57056,2.0,73366.5,-8.63,-9.41,-9.41,0,*5C
1512547231.99,57057,2.0,73336.5,-8.61,-9.41,-9.31,0,*58
1512547233.26,57058,2.0,73348.3,-8.61,-9.45,-9.45,0,*50
1512547234.54,57059,2.06,73344.0,-8.61,-9.41,-9.41,0,*51
1512547235.82,57060,2.0,73344.3,-8.61,-9.41,-9.41,0,*5B
1512547237.1,57061,2.0,73364.5,-8.61,-9.41,-9.41,0,*5A
1512547238.32,57062,2.0,73386.8,-8.59,-9.27,-9.41,0,*52
1512547239.57,57063,2.0,73370.8,-8.61,-9.31,-9.41,0,*5F
1512547240.86,57064,2.0,73348.5,-8.61,-9.41,-9.45,0,*5B
1512547242.14,57065,2.0,73362.8,-8.61,-9.45,-9.45,0,*5E
1512547243.38,57066,2.0,73366.0,-8.59,-9.37,-9.41,0,*57
1512547244.66,57067,2.0,73372.0,-8.61,-9.45,-9.41,0,*58
1512547245.94,57068,2.0,73378.8,-8.61,-9.45,-9.45,0,*53
1512547247.21,57069,2.0,73388.8,-8.61,-9.45,-9.45,0,*52
1512547248.49,57070,2.0,73378.5,-8.61,-9.41,-9.41,0,*5A
1512547249.77,57071,2.0,73362.0,-8.61,-9.45,-9.45,0,*5B
1512547251.05,57072,2.0,73350.5,-8.61,-9.41,-9.37,0,*59
1512547252.33,57073,2.0,73326.5,-8.61,-9.41,-9.41,0,*59
1512547253.55,57074,2.0,73340.5,-8.59,-9.27,-9.41,0,*55
1512547254.8,57075,2.0,73332.0,-8.59,-9.37,-9.41,0,*55
1512547256.05,57076,2.0,73312.3,-8.59,-9.41,-9.37,0,*56
1512547257.32,57077,2.0,73344.3,-8.61,-9.45,-9.41,0,*59
1512547258.57,57078,2.0,73240.3,-8.59,-9.37,-9.37,0,*59
1512547259.82,57079,2.0,73336.3,-8.59,-9.37,-9.37,0,*58
1512547261.07,57080,2.0,73292.0,-8.59,-9.37,-9.41,0,*5F
1512547262.32,57081,2.0,73284.5,-8.59,-9.41,-9.37,0,*5E
1512547263.56,57082,2.0,73310.3,-8.59,-9.41,-9.41,0,*5C
1512547264.81,57083,2.0,73290.8,-8.59,-9.37,-9.41,0,*5C
1512547266.06,57084,2.0,73302.5,-8.59,-9.41,-9.41,0,*5A
1512547267.3,57085,2.0,73320.8,-8.59,-9.37,-9.37,0,*5B
1512547268.55,57086,2.0,73320.0,-8.59,-9.41,-9.41,0,*58
1512547269.83,57087,2.0,73310.0,-8.61,-9.41,-9.41,0,*52
1512547271.11,57088,2.0,73308.0,-8.61,-9.45,-9.45,0,*5D
1512547272.35,57089,2.0,73304.8,-8.59,-9.41,-9.41,0,*57
1512547273.6,57090,2.0,73290.5,-8.59,-9.41,-9.41,0,*5F
1512547274.85,57091,2.0,73330.3,-8.59,-9.41,-9.37,0,*5F
1512547276.13,57092,2.06,73342.3,-8.61,-9.45,-9.45,0,*56
1512547277.38,57093,2.06,73358.8,-8.55,-9.41,-9.41,0,*50
1512547278.62,57094,2.0,73360.5,-8.59,-9.41,-9.41,0,*5B
1512547279.9,57095,2.06,73372.0,-8.61,-9.45,-9.45,0,*51
1512547281.15,57096,2.0,73378.8,-8.59,-9.41,-9.41,0,*59
1512547282.39,57097,2.0,73370.0,-8.59,-9.45,-9.45,0,*58
1512547283.64,57098,2.0,73362.8,-8.59,-9.41,-9.45,0,*53
1512547284.92,57099,2.0,73358.5,-8.61,-9.45,-9.49,0,*51
1512547286.16,57100,2.0,73358.3,-8.59,-9.41,-9.41,0,*57
1512547287.41,57101,2.0,73364.8,-8.59,-9.37,-9.41,0,*57
1512547288.66,57102,2.0,73366.0,-8.55,-9.41,-9.37,0,*58
1512547289.91,57103,2.0,73350.0,-8.55,-9.41,-9.37,0,*59
1512547291.16,57104,2.06,73354.5,-8.55,-9.41,-9.41,0,*5F
1512547292.41,57105,2.0,73354.8,-8.55,-9.41,-9.37,0,*5F
1512547293.66,57106,2.06,73348.5,-8.59,-9.37,-9.41,0,*50
1512547294.91,57107,2.0,73344.3,-8.59,-9.41,-9.41,0,*50
1512547296.15,57108,2.0,73336.8,-8.59,-9.41,-9.37,0,*5E
1512547297.4,57109,2.06,73332.8,-8.59,-9.37,-9.41,0,*5F
1512547298.65,57110,2.06,73284.5,-8.59,-9.37,-9.41,0,*57
1512547299.89,57111,2.0,73280.8,-8.59,-9.37,-9.41,0,*56
1512547301.14,57112,2.0,73314.0,-8.59,-9.41,-9.37,0,*55
1512547302.39,57113,2.0,73330.5,-8.59,-9.37,-9.37,0,*55
1512547303.64,57114,2.0,73348.0,-8.59,-9.37,-9.41,0,*53
1512547304.89,57115,2.0,73378.3,-8.55,-9.41,-9.41,0,*5F
1512547306.14,57116,2.0,73388.0,-8.55,-9.41,-9.41,0,*5C
1512547307.42,57117,2.06,73374.3,-8.51,-9.37,-9.37,0,*59
1512547308.64,57118,2.0,73352.8,-8.51,-9.31,-9.31,0,*56
1512547309.88,57119,2.0,73346.0,-8.55,-9.37,-9.41,0,*52
1512547311.14,57120,2.0,73308.8,-8.55,-9.41,-9.37,0,*58
1512547312.39,57121,2.0,73324.5,-8.55,-9.37,-9.37,0,*58
1512547313.61,57122,2.0,73348.5,-8.51,-9.31,-9.31,0,*5F
1512547314.86,57123,2.0,73332.8,-8.55,-9.37,-9.41,0,*5B
1512547316.08,57124,2.0,73324.0,-8.51,-9.31,-9.27,0,*5E
1512547317.33,57125,2.0,73354.3,-8.55,-9.41,-9.41,0,*5C
1512547318.61,57126,2.06,73310.8,-8.51,-9.37,-9.37,0,*5B
1512547319.83,57127,2.0,73346.8,-8.51,-9.31,-9.31,0,*5A
1512547321.08,57128,2.06,73366.5,-8.55,-9.41,-9.41,0,*51
1512547322.3,57129,2.06,73372.0,-8.55,-9.31,-9.37,0,*56
1512547323.59,57130,2.06,73382.3,-8.51,-9.37,-9.37,0,*5C
1512547324.87,57131,2.0,73388.5,-8.51,-9.37,-9.37,0,*5D
1512547326.15,57132,2.0,73390.3,-8.51,-9.37,-9.37,0,*5E
1512547327.4,57133,2.0,73400.0,-8.55,-9.41,-9.41,0,*5B
1512547328.68,57134,2.0,73394.0,-8.51,-9.37,-9.37,0,*58
1512547329.93,57135,2.06,73366.5,-8.55,-9.41,-9.41,0,*5D
1512547331.18,57136,2.0,73338.0,-8.55,-9.41,-9.41,0,*5E
1512547332.42,57137,2.06,73366.5,-8.55,-9.41,-9.41,0,*5F
1512547333.67,57138,2.0,73344.8,-8.55,-9.37,-9.41,0,*51
1512547334.92,57139,2.0,73352.3,-8.51,-9.37,-9.31,0,*53
1512547336.17,57140,2.06,73356.8,-8.55,-9.41,-9.41,0,*5F
1512547337.42,57141,2.0,73354.5,-8.55,-9.37,-9.37,0,*5E
1512547338.7,57142,2.06,73350.3,-8.51,-9.37,-9.37,0,*59
1512547339.95,57143,2.0,73340.0,-8.51,-9.31,-9.37,0,*5E
1512547341.17,57144,2.06,73344.8,-8.51,-9.31,-9.31,0,*5F
1512547342.39,57145,2.06,73352.8,-8.51,-9.31,-9.31,0,*5E
1512547343.64,57146,2.06,73370.3,-8.55,-9.41,-9.41,0,*59
1512547344.84,57147,2.0,73382.5,-8.49,-9.31,-9.31,0,*55
1512547346.06,57148,2.06,73394.5,-8.49,-9.31,-9.37,0,*5C
1512547347.34,57149,2.06,73402.5,-8.51,-9.37,-9.41,0,*53
1512547348.59,57150,2.06,73396.8,-8.55,-9.37,-9.41,0,*5F
1512547349.84,57151,2.0,73372.0,-8.51,-9.31,-9.37,0,*5D
1512547351.1,57152,2.0,73352.3,-8.51,-9.31,-9.37,0,*5E
1512547352.34,57153,2.06,73346.5,-8.51,-9.37,-9.31,0,*5F
1512547353.59,57154,2.0,73338.3,-8.51,-9.37,-9.31,0,*58
1512547354.87,57155,2.0,73356.8,-8.51,-9.37,-9.37,0,*5F
1512547356.15,57156,2.06,73366.0,-8.51,-9.37,-9.41,0,*5D
1512547357.4,57157,2.06,73354.5,-8.51,-9.31,-9.41,0,*5A
1512547358.68,57158,2.0,73386.5,-8.51,-9.37,-9.37,0,*52
1512547359.96,57159,2.0,73388.5,-8.51,-9.37,-9.37,0,*53
1512547361.24,57160,2.06,73382.0,-8.51,-9.37,-9.41,0,*58
1512547362.51,57161,2.0,73382.0,-8.51,-9.41,-9.41,0,*58
1512547363.79,57162,2.0,73390.0,-8.51,-9.37,-9.41,0,*5A
1512547365.04,57163,2.06,73412.3,-8.51,-9.31,-9.41,0,*5D
1512547366.32,57164,2.06,73398.8,-8.51,-9.37,-9.41,0,*5C
1512547367.6,57165,2.0,73418.8,-8.51,-9.37,-9.41,0,*5D
1512547368.88,57166,2.06,73386.0,-8.51,-9.41,-9.49,0,*57
1512547370.15,57167,2.06,73350.5,-8.51,-9.49,-9.49,0,*5E
1512547371.42,57168,2.06,73324.5,-8.51,-9.49,-9.53,0,*5A
1512547372.69,57169,2.0,73326.3,-8.51,-9.61,-9.61,0,*50
1512547373.94,57170,2.0,73336.3,-8.49,-9.49,-9.57,0,*5E
1512547375.21,57171,2.06,73348.3,-8.51,-9.53,-9.53,0,*59
1512547376.48,57172,2.06,73362.3,-8.51,-9.53,-9.53,0,*5A
1512547377.75,57173,2.06,73374.8,-8.51,-9.53,-9.61,0,*5A
1512547379.03,57174,2.06,73360.8,-8.51,-9.49,-9.53,0,*57
1512547380.3,57175,2.0,73366.8,-8.51,-9.53,-9.53,0,*5D
1512547381.52,57176,2.06,73368.5,-8.55,-9.57,-9.67,0,*59
1512547382.76,57177,2.06,73354.5,-8.55,-9.53,-9.57,0,*5F
1512547384.03,57178,2.06,73342.0,-8.51,-9.49,-9.53,0,*5B
1512547385.31,57179,2.06,73336.0,-8.51,-9.41,-9.49,0,*59
1512547386.58,57180,2.06,73342.5,-8.51,-9.49,-9.41,0,*5F
1512547387.86,57181,2.06,73362.8,-8.51,-9.49,-9.53,0,*5D
1512547389.13,57182,2.06,73358.8,-8.51,-9.49,-9.53,0,*5E
1512547390.37,57183,2.06,73374.3,-8.55,-9.53,-9.57,0,*54
1512547391.65,57184,2.06,73332.0,-8.51,-9.49,-9.53,0,*58
1512547392.93,57185,2.06,73322.3,-8.51,-9.41,-9.49,0,*5A
1512547394.2,57186,2.06,73348.5,-8.51,-9.49,-9.53,0,*5A
1512547395.44,57187,2.06,73272.0,-8.55,-9.53,-9.57,0,*50
1512547396.72,57188,2.0,73264.5,-8.51,-9.49,-9.53,0,*54
1512547397.99,57189,2.0,73320.5,-8.51,-9.53,-9.61,0,*5F
1512547399.26,57190,2.06,73366.5,-8.51,-9.53,-9.53,0,*56
1512547400.48,57191,2.06,73372.5,-8.55,-9.53,-9.67,0,*54
1512547401.75,57192,2.06,73336.3,-8.51,-9.53,-9.53,0,*54
1512547403.02,57193,2.0,73326.8,-8.51,-9.49,-9.49,0,*55
1512547404.3,57194,2.06,73340.8,-8.51,-9.49,-9.53,0,*59
1512547405.58,57195,2.06,73332.8,-8.51,-9.49,-9.53,0,*58
1512547406.85,57196,2.06,73338.0,-8.51,-9.49,-9.61,0,*5A
1512547408.09,57197,2.06,73344.0,-8.51,-9.53,-9.67,0,*56
1512547409.33,57198,2.06,73352.8,-8.55,-9.57,-9.57,0,*5A
1512547410.6,57199,2.0,73344.3,-8.51,-9.53,-9.53,0,*5F
1512547411.87,57200,2.06,73340.8,-8.51,-9.61,-9.61,0,*5C
1512547413.07,57201,2.06,73330.8,-8.55,-9.67,-9.67,0,*59
1512547414.28,57202,2.06,73336.5,-8.55,-9.57,-9.67,0,*59
1512547415.48,57203,2.06,73330.5,-8.55,-9.67,-9.67,0,*5B
1512547416.75,57204,2.06,73344.0,-8.51,-9.53,-9.61,0,*59
1512547418.02,57205,2.06,73326.3,-8.51,-9.61,-9.61,0,*59
1512547419.23,57206,2.06,73346.0,-8.55,-9.67,-9.57,0,*5D
1512547420.43,57207,2.06,73362.0,-8.55,-9.67,-9.67,0,*5F
1512547421.64,57208,2.06,73340.8,-8.55,-9.57,-9.67,0,*53
1512547422.89,57209,2.06,73386.8,-8.51,-9.53,-9.67,0,*52
1512547424.09,57210,2.06,73348.0,-8.55,-9.67,-9.71,0,*5E
1512547425.3,57211,2.06,73372.8,-8.55,-9.57,-9.71,0,*5C
1512547426.5,57212,2.06,73364.8,-8.55,-9.67,-9.67,0,*5B
1512547427.69,57213,2.06,73346.8,-8.55,-9.67,-9.67,0,*5A
1512547428.89,57214,2.06,73356.3,-8.55,-9.67,-9.67,0,*5D
1512547430.1,57215,2.06,73356.8,-8.55,-9.57,-9.67,0,*5F
1512547431.3,57216,2.06,73352.0,-8.55,-9.67,-9.67,0,*5F
1512547432.57,57217,2.06,73360.8,-8.51,-9.61,-9.61,0,*5A
1512547433.78,57218,2.06,73356.5,-8.55,-9.57,-9.67,0,*52
1512547435.0,57219,2.06,73312.8,-8.59,-9.57,-9.67,0,*5F
1512547436.23,57220,2.06,73316.0,-8.59,-9.57,-9.57,0,*56
1512547437.42,57221,2.06,73342.5,-8.55,-9.67,-9.67,0,*5B
1512547438.66,57222,2.0,73364.5,-8.55,-9.57,-9.57,0,*58
1512547439.9,57223,2.06,73350.0,-8.55,-9.53,-9.57,0,*5D
1512547441.13,57224,2.06,73356.0,-8.55,-9.57,-9.57,0,*5E
1512547442.37,57225,2.06,73362.3,-8.55,-9.57,-9.57,0,*5F
1512547443.58,57226,2.06,73344.3,-8.55,-9.57,-9.67,0,*5F
1512547444.85,57227,2.06,73336.8,-8.51,-9.53,-9.53,0,*59
1512547446.09,57228,2.06,73384.0,-8.55,-9.57,-9.57,0,*52
1512547447.33,57229,2.06,73344.5,-8.55,-9.45,-9.57,0,*50
1512547448.58,57230,2.06,73312.5,-8.55,-9.45,-9.57,0,*58
1512547449.82,57231,2.06,73342.5,-8.55,-9.53,-9.53,0,*5A
1512547451.1,57232,2.06,73304.8,-8.51,-9.49,-9.53,0,*56
1512547452.34,57233,2.06,73330.0,-8.55,-9.53,-9.53,0,*58
1512547453.59,57234,2.06,73374.5,-8.55,-9.53,-9.53,0,*5F
1512547454.83,57235,2.06,73360.0,-8.55,-9.53,-9.53,0,*5E
1512547456.07,57236,2.06,73344.5,-8.55,-9.53,-9.57,0,*59
1512547457.34,57237,2.06,73360.0,-8.51,-9.53,-9.53,0,*58
1512547458.59,57238,2.06,73354.3,-8.55,-9.53,-9.53,0,*53
1512547459.83,57239,2.06,73364.5,-8.55,-9.53,-9.45,0,*55
1512547461.08,57240,2.06,73342.8,-8.55,-9.45,-9.45,0,*5C
1512547462.33,57241,2.06,73340.3,-8.55,-9.53,-9.53,0,*5D
1512547463.56,57242,2.06,73346.3,-8.55,-9.53,-9.57,0,*5A
1512547464.8,57243,2.06,73344.8,-8.55,-9.53,-9.57,0,*5B
1512547466.0,57244,2.06,73350.5,-8.55,-9.67,-9.67,0,*58
1512547467.19,57245,2.06,73358.3,-8.55,-9.67,-9.67,0,*59
1512547468.43,57246,2.06,73340.0,-8.55,-9.57,-9.57,0,*5A
1512547469.63,57247,2.06,73336.5,-8.55,-9.67,-9.67,0,*5B
1512547470.84,57248,2.06,73344.3,-8.55,-9.57,-9.67,0,*57
1512547472.06,57249,2.06,73350.3,-8.55,-9.57,-9.67,0,*56
1512547473.27,57250,2.06,73354.5,-8.55,-9.67,-9.57,0,*5E
1512547474.49,57251,2.06,73360.0,-8.55,-9.57,-9.67,0,*5F
1512547475.72,57252,2.06,73370.0,-8.55,-9.57,-9.57,0,*5F
1512547476.95,57253,2.06,73374.5,-8.55,-9.57,-9.57,0,*5E
1512547478.17,57254,2.06,73366.5,-8.55,-9.67,-9.57,0,*5A
1512547479.41,57255,2.06,73348.5,-8.55,-9.53,-9.57,0,*5C
1512547480.66,57256,2.06,73292.0,-8.55,-9.45,-9.45,0,*5B
1512547481.93,57257,2.06,73342.3,-8.51,-9.49,-9.49,0,*5E
1512547483.18,57258,2.06,73320.0,-8.55,-9.53,-9.53,0,*55
1512547484.41,57259,2.06,73330.5,-8.55,-9.53,-9.57,0,*50
1512547485.66,57260,2.0,73348.3,-8.55,-9.53,-9.53,0,*5E
1512547486.91,57261,2.06,73330.8,-8.55,-9.53,-9.53,0,*5F
1512547488.15,57262,2.06,73320.8,-8.55,-9.53,-9.53,0,*5C
1512547489.4,57263,2.06,73318.3,-8.55,-9.45,-9.53,0,*5A
1512547490.65,57264,2.06,73314.3,-8.55,-9.53,-9.53,0,*5A
1512547491.89,57265,2.06,73340.0,-8.55,-9.53,-9.53,0,*5B
1512547493.14,57266,2.06,73332.0,-8.55,-9.53,-9.53,0,*58
1512547494.41,57267,2.06,73326.5,-8.51,-9.41,-9.49,0,*55
1512547495.66,57268,2.06,73340.8,-8.55,-9.45,-9.45,0,*56
1512547496.91,57269,2.06,73240.5,-8.55,-9.45,-9.45,0,*57
1512547498.16,57270,2.06,73312.5,-8.55,-9.45,-9.53,0,*58
1512547499.44,57271,2.06,73326.8,-8.51,-9.41,-9.49,0,*52
1512547500.68,57272,2.06,73328.5,-8.55,-9.53,-9.57,0,*59
1512547501.93,57273,2.06,73336.0,-8.55,-9.45,-9.45,0,*5C
1512547503.18,57274,2.06,73330.8,-8.55,-9.45,-9.53,0,*5C
1512547504.42,57275,2.06,73338.3,-8.55,-9.45,-9.53,0,*5D
1512547505.7,57276,2.06,73336.5,-8.51,-9.41,-9.49,0,*55
1512547506.95,57277,2.06,73340.0,-8.55,-9.53,-9.53,0,*58
1512547508.2,57278,2.06,73342.3,-8.55,-9.45,-9.53,0,*50
1512547509.45,57279,2.06,73336.3,-8.55,-9.45,-9.45,0,*56
1512547510.7,57280,2.06,73338.3,-8.55,-9.45,-9.45,0,*50
1512547511.94,57281,2.06,73344.8,-8.55,-9.45,-9.53,0,*56
1512547513.19,57282,2.06,73332.3,-8.55,-9.53,-9.45,0,*55
1512547514.44,57283,2.06,73362.8,-8.55,-9.45,-9.53,0,*54
1512547515.69,57284,2.06,73388.8,-8.55,-9.45,-9.53,0,*53
1512547516.97,57285,2.06,73384.5,-8.51,-9.41,-9.41,0,*51
1512547518.24,57286,2.06,73354.3,-8.51,-9.41,-9.41,0,*52
1512547519.52,57287,2.06,73346.5,-8.51,-9.49,-9.41,0,*5B
1512547520.76,57288,2.06,73286.0,-8.55,-9.45,-9.45,0,*58
1512547522.01,57289,2.06,73246.8,-8.55,-9.45,-9.53,0,*5E
1512547523.26,57290,2.06,73304.8,-8.55,-9.41,-9.41,0,*51
1512547524.51,57291,2.06,73322.8,-8.55,-9.45,-9.45,0,*50
1512547525.79,57292,2.06,73336.3,-8.51,-9.41,-9.53,0,*54
1512547527.04,57293,2.06,73312.3,-8.55,-9.41,-9.49,0,*5A
1512547528.29,57294,2.06,73312.3,-8.55,-9.53,-9.53,0,*55
1512547529.56,57295,2.06,73284.8,-8.51,-9.49,-9.41,0,*58
1512547530.84,57296,2.06,73308.5,-8.51,-9.41,-9.41,0,*53
1512547532.09,57297,2.06,73316.3,-8.55,-9.45,-9.53,0,*51
1512547533.36,57298,2.06,73326.0,-8.51,-9.41,-9.41,0,*5D
1512547534.61,57299,2.06,73330.5,-8.55,-9.45,-9.45,0,*58
1512547535.89,57300,2.06,73328.3,-8.51,-9.41,-9.41,0,*5D
1512547537.17,57301,2.06,73344.5,-8.51,-9.41,-9.41,0,*5C
1512547538.44,57302,2.06,73362.3,-8.51,-9.41,-9.41,0,*5F
1512547539.69,57303,2.06,73382.0,-8.55,-9.45,-9.45,0,*5A
1512547540.92,57304,2.06,73384.8,-8.49,-9.31,-9.37,0,*56
1512547542.15,57305,2.06,73356.8,-8.49,-9.31,-9.37,0,*57
1512547543.34,57306,2.06,73316.5,-8.49,-9.27,-9.31,0,*55
1512547544.53,57307,2.06,73328.5,-8.49,-9.27,-9.31,0,*54
1512547545.73,57308,2.06,73354.8,-8.49,-9.31,-9.31,0,*5C
1512547546.92,57309,2.06,73340.0,-8.49,-9.31,-9.31,0,*5D
1512547548.11,57310,2.06,73322.8,-8.49,-9.31,-9.31,0,*55
1512547549.31,57311,2.06,73354.5,-8.49,-9.31,-9.31,0,*54
1512547550.51,57312,2.06,73316.8,-8.49,-9.27,-9.27,0,*57
1512547551.71,57313,2.06,73332.3,-8.49,-9.31,-9.27,0,*51
1512547552.9,57314,2.06,73338.0,-8.49,-9.31,-9.31,0,*51
1512547554.09,57315,2.06,73340.5,-8.49,-9.27,-9.31,0,*57
1512547555.29,57316,2.06,73372.3,-8.49,-9.31,-9.31,0,*53
1512547556.48,57317,2.06,73308.8,-8.49,-9.31,-9.31,0,*52
1512547557.74,57318,2.06,73330.0,-8.47,-9.31,-9.37,0,*55
1512547558.96,57319,2.06,73348.3,-8.49,-9.31,-9.37,0,*5A
1512547560.19,57320,2.06,73348.3,-8.49,-9.31,-9.37,0,*50
1512547561.42,57321,2.06,73338.8,-8.49,-9.31,-9.37,0,*51
1512547562.64,57322,2.06,73294.0,-8.49,-9.31,-9.37,0,*52
1512547563.87,57323,2.06,73286.0,-8.49,-9.31,-9.37,0,*53
1512547565.1,57324,2.06,73326.5,-8.49,-9.31,-9.37,0,*54
1512547566.32,57325,2.06,73326.3,-8.47,-9.31,-9.31,0,*5D
1512547567.51,57326,2.06,73336.3,-8.49,-9.31,-9.31,0,*50
1512547568.73,57327,2.06,73310.3,-8.47,-9.31,-9.31,0,*5F
1512547569.93,57328,2.06,73332.0,-8.49,-9.31,-9.31,0,*5E
1512547571.18,57329,2.06,73352.0,-8.49,-9.37,-9.37,0,*5F
1512547572.41,57330,2.06,73362.0,-8.49,-9.31,-9.37,0,*51
1512547573.66,57331,2.06,73306.8,-8.47,-9.31,-9.37,0,*5E
1512547574.94,57332,2.06,73356.5,-8.47,-9.37,-9.37,0,*5B
1512547576.2,57333,2.06,73324.8,-8.49,-9.37,-9.37,0,*54
1512547577.45,57334,2.06,73334.8,-8.49,-9.37,-9.37,0,*53
1512547578.73,57335,2.06,73296.3,-8.47,-9.37,-9.37,0,*5C
1512547579.96,57336,2.06,73362.3,-8.49,-9.31,-9.37,0,*57
1512547581.21,57337,2.06,73332.8,-8.47,-9.31,-9.37,0,*58
1512547582.47,57338,2.06,73288.0,-8.47,-9.31,-9.37,0,*57
1512547583.69,57339,2.06,73302.0,-8.49,-9.31,-9.37,0,*58
1512547584.97,57340,2.06,73302.8,-8.47,-9.37,-9.37,0,*5E
1512547586.25,57341,2.06,73262.8,-8.47,-9.37,-9.37,0,*5F
1512547587.48,57342,2.06,73312.5,-8.47,-9.31,-9.31,0,*5C
1512547588.69,57343,2.06,73308.5,-8.47,-9.31,-9.31,0,*5D
1512547589.92,57344,2.06,73318.0,-8.47,-9.31,-9.27,0,*5D
1512547591.14,57345,2.06,73310.8,-8.47,-9.31,-9.31,0,*5B
1512547592.36,57346,2.06,73332.8,-8.47,-9.31,-9.31,0,*58
1512547593.55,57347,2.06,73338.0,-8.49,-9.31,-9.31,0,*57
1512547594.77,57348,2.06,73340.5,-8.47,-9.31,-9.31,0,*56
1512547596.0,57349,2.06,73350.8,-8.47,-9.27,-9.31,0,*50
1512547597.21,57350,2.06,73342.3,-8.47,-9.31,-9.31,0,*5F
1512547598.44,57351,2.06,73338.5,-8.47,-9.27,-9.27,0,*5E
1512547599.66,57352,2.06,73304.8,-8.47,-9.31,-9.31,0,*5D
1512547600.88,57353,2.06,73278.8,-8.47,-9.27,-9.31,0,*5B
1512547602.1,57354,2.06,73266.0,-8.47,-9.31,-9.31,0,*5B
1512547603.32,57355,2.06,73320.3,-8.47,-9.27,-9.31,0,*5D
1512547604.53,57356,2.06,73378.8,-8.45,-9.27,-9.27,0,*5B
1512547605.73,57357,2.06,73326.0,-8.45,-9.23,-9.27,0,*5E
1512547606.94,57358,2.06,73336.3,-8.45,-9.23,-9.27,0,*51
1512547608.14,57359,2.06,73332.8,-8.45,-9.23,-9.27,0,*50
1512547609.35,57360,2.06,73326.5,-8.45,-9.27,-9.27,0,*5E
1512547610.57,57361,2.06,73264.0,-8.43,-9.27,-9.27,0,*59
1512547611.78,57362,2.06,73270.0,-8.45,-9.27,-9.27,0,*5C
1512547612.98,57363,2.06,73306.8,-8.45,-9.23,-9.27,0,*59
1512547614.19,57364,2.06,73258.3,-8.45,-9.27,-9.27,0,*5A
1512547615.4,57365,2.06,73294.0,-8.45,-9.23,-9.27,0,*5F
1512547616.6,57366,2.06,73284.5,-8.45,-9.27,-9.27,0,*58
1512547617.82,57367,2.06,73336.3,-8.43,-9.23,-9.23,0,*5F
1512547619.04,57368,2.06,73358.5,-8.43,-9.23,-9.23,0,*50
1512547620.25,57369,2.06,73238.3,-8.45,-9.23,-9.27,0,*53
1512547621.45,57370,2.06,73316.3,-8.45,-9.23,-9.27,0,*5B
1512547622.68,57371,2.06,73272.5,-8.43,-9.23,-9.27,0,*5C
1512547623.9,57372,2.06,73334.5,-8.43,-9.27,-9.27,0,*5B
1512547625.12,57373,2.06,73324.0,-8.43,-9.27,-9.27,0,*5A
1512547626.34,57374,2.06,73330.3,-8.43,-9.27,-9.23,0,*59
1512547627.56,57375,2.06,73346.3,-8.43,-9.23,-9.27,0,*58
1512547628.79,57376,2.06,73356.8,-8.43,-9.27,-9.27,0,*5F
1512547630.01,57377,2.06,73368.8,-8.43,-9.27,-9.23,0,*5A
1512547631.23,57378,2.06,73376.8,-8.43,-9.27,-9.27,0,*51
1512547632.48,57379,2.06,73378.0,-8.43,-9.15,-9.27,0,*51
1512547633.7,57380,2.06,73322.3,-8.43,-9.23,-9.23,0,*56
1512547634.95,57381,2.06,73280.5,-8.43,-9.15,-9.23,0,*52
1512547636.2,57382,2.06,73266.8,-8.43,-9.15,-9.23,0,*51
1512547637.46,57383,2.06,73288.5,-8.43,-9.15,-9.27,0,*54
1512547638.68,57384,2.06,73312.0,-8.43,-9.23,-9.23,0,*52
1512547639.88,57385,2.06,73328.5,-8.45,-9.23,-9.27,0,*51
1512547641.08,57386,2.06,73332.8,-8.41,-9.23,-9.19,0,*5B
1512547642.28,57387,2.06,73314.3,-8.41,-9.19,-9.19,0,*53
1512547643.5,57388,2.06,73316.0,-8.39,-9.19,-9.23,0,*5A
1512547644.69,57389,2.06,73436.5,-8.41,-9.19,-9.23,0,*54
1512547645.91,57390,2.06,73340.8,-8.39,-9.23,-9.23,0,*5A
1512547647.11,57391,2.06,73370.8,-8.41,-9.19,-9.19,0,*54
1512547648.33,57392,2.06,73354.3,-8.39,-9.19,-9.19,0,*58
1512547649.53,57393,2.06,73364.5,-8.41,-9.23,-9.23,0,*56
1512547650.73,57394,2.06,73378.3,-8.41,-9.19,-9.23,0,*58
1512547651.92,57395,2.06,73334.3,-8.41,-9.19,-9.23,0,*59
1512547653.12,57396,2.06,73310.3,-8.41,-9.19,-9.19,0,*53
1512547654.34,57397,2.06,73282.0,-8.39,-9.19,-9.23,0,*54
1512547655.54,57398,2.06,73252.3,-8.41,-9.23,-9.19,0,*54
1512547656.74,57399,2.13,73240.8,-8.41,-9.23,-9.23,0,*5C
1512547657.95,57400,2.06,73240.3,-8.39,-9.23,-9.23,0,*54
1512547659.15,57401,2.06,73312.5,-8.41,-9.23,-9.23,0,*5A
1512547660.37,57402,2.06,73274.3,-8.39,-9.23,-9.19,0,*5F
1512547661.59,57403,2.06,73232.3,-8.39,-9.19,-9.23,0,*5E
1512547662.79,57404,2.13,73316.5,-8.41,-9.23,-9.19,0,*56
1512547663.99,57405,2.06,73328.8,-8.41,-9.19,-9.23,0,*57
1512547665.21,57406,2.06,73310.5,-8.39,-9.23,-9.23,0,*52
1512547666.43,57407,2.06,73366.3,-8.39,-9.23,-9.23,0,*53
1512547667.64,57408,2.06,73344.8,-8.39,-9.23,-9.23,0,*5C
1512547668.84,57409,2.06,73348.8,-8.41,-9.23,-9.23,0,*52
1512547670.06,57410,2.13,73334.0,-8.39,-9.23,-9.23,0,*55
1512547671.26,57411,2.06,73318.0,-8.41,-9.23,-9.27,0,*5F
1512547672.46,57412,2.06,73326.8,-8.41,-9.23,-9.27,0,*5C
1512547673.66,57413,2.06,73360.5,-8.41,-9.23,-9.27,0,*5D
1512547674.88,57414,2.06,73376.5,-8.39,-9.23,-9.27,0,*55
1512547676.08,57415,2.06,73378.0,-8.41,-9.23,-9.27,0,*5B
1512547677.3,57416,2.06,73358.8,-8.39,-9.27,-9.27,0,*53
1512547678.53,57417,2.06,73340.8,-8.39,-9.27,-9.27,0,*52
1512547679.75,57418,2.06,73316.5,-8.39,-9.27,-9.27,0,*5D
1512547680.95,57419,2.06,73340.3,-8.41,-9.27,-9.27,0,*53
1512547682.17,57420,2.13,73358.8,-8.39,-9.27,-9.27,0,*56
1512547683.4,57421,2.06,73340.3,-8.39,-9.27,-9.27,0,*57
1512547684.64,57422,2.06,73290.0,-8.39,-9.37,-9.27,0,*55
1512547685.92,57423,2.13,73316.3,-8.39,-9.37,-9.37,0,*55
1512547687.2,57424,2.06,73312.0,-8.39,-9.37,-9.37,0,*52
1512547688.45,57425,2.06,73308.5,-8.41,-9.37,-9.37,0,*5C
1512547689.73,57426,2.06,73306.0,-8.39,-9.37,-9.37,0,*50
1512547691.01,57427,2.06,73282.8,-8.39,-9.41,-9.49,0,*59
1512547692.28,57428,2.06,73290.8,-8.39,-9.41,-9.49,0,*56
1512547693.55,57429,2.06,73282.8,-8.39,-9.49,-9.49,0,*5F
1512547694.82,57430,2.06,73290.0,-8.39,-9.49,-9.61,0,*5D
1512547696.09,57431,2.06,73304.0,-8.39,-9.53,-9.61,0,*57
1512547697.34,57432,2.06,73316.8,-8.41,-9.49,-9.53,0,*51
1512547698.58,57433,2.06,73324.5,-8.41,-9.53,-9.61,0,*5A
1512547699.82,57434,2.06,73312.0,-8.41,-9.53,-9.61,0,*5D
1512547701.09,57435,2.13,73314.3,-8.39,-9.61,-9.53,0,*53
1512547702.34,57436,2.06,73308.3,-8.41,-9.53,-9.49,0,*55
1512547703.59,57437,2.13,73318.0,-8.41,-9.41,-9.49,0,*57
1512547704.83,57438,2.06,73324.8,-8.41,-9.49,-9.49,0,*50
1512547706.08,57439,2.06,73354.8,-8.41,-9.53,-9.53,0,*51
1512547707.32,57440,2.13,73368.0,-8.41,-9.53,-9.61,0,*5E
1512547708.57,57441,2.06,73304.8,-8.41,-9.61,-9.61,0,*5E
1512547709.81,57442,2.06,73342.8,-8.41,-9.61,-9.61,0,*5D
1512547711.05,57443,2.13,73338.8,-8.41,-9.61,-9.61,0,*5C
1512547712.27,57444,2.13,73358.8,-8.41,-9.61,-9.67,0,*5D
1512547713.49,57445,2.06,73374.5,-8.43,-9.67,-9.71,0,*5F
1512547714.72,57446,2.06,73378.5,-8.43,-9.79,-9.71,0,*53
1512547715.94,57447,2.06,73382.0,-8.43,-9.67,-9.71,0,*5D
1512547717.16,57448,2.06,73384.0,-8.43,-9.67,-9.71,0,*52
1512547718.4,57449,2.13,73382.8,-8.43,-9.57,-9.67,0,*57
1512547719.64,57450,2.13,73380.5,-8.43,-9.67,-9.57,0,*5F
1512547720.9,57451,2.13,73340.5,-8.43,-9.57,-9.53,0,*59
1512547722.15,57452,2.06,73316.8,-8.45,-9.57,-9.57,0,*58
1512547723.4,57453,2.13,73310.0,-8.45,-9.53,-9.53,0,*59
1512547724.66,57454,2.06,73332.8,-8.43,-9.53,-9.57,0,*5C